HIMAWARI-9 (41836 NORAD) Tracking and Keplerian Element Data

This shows tracking and keplerian element data for the satellite.

Feedback or suggestion? Click here.




ElementValue
Catalog41836
NameHIMAWARI-9
Epoch Orbit616
Epoch Day195.79625588
Epoch Year2018
RAAN293.681
Inclination0.0372
Eccentricity7E-05
Argument of Perigee170.3105
Mean Anonmoly256.0022
Mean Motion1.00272943
Decay Rate-2.92E-06
L11 41836U 16064A 18195.79625588 -.00000292 00000-0 00000-0 0 9997
L22 41836 0.0372 293.6810 0000700 170.3105 256.0022 1.00272943 6167

Live tracking and technical data element details for HIMAWARI-9 (NORAD 41836). HIMAWARI-9 can be tracked NOW for your location showing map with azimuth and elevation plus other details from your city location.

Track the satellite on the map from your city or location and see movement details for azimuth, elevation, latitude, longitude, range, height, and movement on the map or in text.







IsCatalogInMostPopularTable: catalog: 41836, numindb: 71
Update: records affected: 1



GetName: 41836 HIMAWARI-9

Hit Count: updated at: Sun, 15 Jul 2018 23:11:47 GMT